TimeEST,TemperatureF,Dew PointF,Humidity,Sea Level PressureIn,VisibilityMPH,Wind Direction,Wind SpeedMPH,Gust SpeedMPH,PrecipitationIn,Events,Conditions,WindDirDegrees,DateUTC
12:53 AM,28.0,21.9,78,30.22,7.0,SSW,8.1,-,0.00,Snow,Light Snow,210,2013-12-27 05:53:00
1:53 AM,28.9,23.0,78,30.22,9.0,SSW,9.2,-,0.00,,Overcast,210,2013-12-27 06:53:00
2:53 AM,28.0,24.1,85,30.23,10.0,WSW,4.6,-,N/A,,Overcast,240,2013-12-27 07:53:00
3:49 AM,28.4,24.8,86,30.20,8.0,West,4.6,-,N/A,,Overcast,260,2013-12-27 08:49:00
3:53 AM,28.0,24.1,85,30.23,8.0,West,4.6,-,N/A,,Overcast,260,2013-12-27 08:53:00
4:53 AM,28.0,24.1,85,30.23,6.0,WSW,4.6,-,N/A,,Overcast,240,2013-12-27 09:53:00
5:12 AM,28.4,24.8,86,30.20,5.0,West,5.8,-,N/A,,Overcast,260,2013-12-27 10:12:00
5:53 AM,28.9,25.0,85,30.25,4.0,West,5.8,-,N/A,,Overcast,280,2013-12-27 10:53:00
6:53 AM,28.0,24.1,85,30.27,5.0,NW,6.9,-,N/A,,Overcast,310,2013-12-27 11:53:00
7:53 AM,27.0,23.0,85,30.30,6.0,NW,5.8,-,N/A,,Overcast,320,2013-12-27 12:53:00
8:53 AM,27.0,23.0,85,30.32,5.0,NNW,3.5,-,N/A,,Overcast,340,2013-12-27 13:53:00
9:53 AM,27.0,21.9,81,30.32,7.0,Calm,Calm,-,N/A,,Overcast,0,2013-12-27 14:53:00
10:53 AM,28.0,23.0,81,30.32,6.0,Calm,Calm,-,N/A,,Haze,0,2013-12-27 15:53:00
11:53 AM,28.9,25.0,85,30.30,5.0,South,3.5,-,N/A,,Overcast,190,2013-12-27 16:53:00
12:53 PM,32.0,27.0,82,30.28,5.0,WSW,4.6,-,N/A,,Haze,240,2013-12-27 17:53:00
1:16 PM,32.0,26.6,80,30.23,5.0,SW,5.8,-,N/A,,Haze,230,2013-12-27 18:16:00
1:53 PM,33.1,28.0,82,30.24,5.0,SW,5.8,-,N/A,,Haze,230,2013-12-27 18:53:00
2:19 PM,33.8,28.4,81,30.20,6.0,SW,4.6,-,N/A,,Haze,220,2013-12-27 19:19:00
2:53 PM,33.1,28.9,85,30.22,6.0,Calm,Calm,-,N/A,,Clear,0,2013-12-27 19:53:00
3:53 PM,32.0,28.0,85,30.20,5.0,South,3.5,-,N/A,,Clear,170,2013-12-27 20:53:00
4:53 PM,33.1,30.0,89,30.19,3.0,South,3.5,-,N/A,,Clear,170,2013-12-27 21:53:00
5:09 PM,30.2,28.4,93,30.16,2.5,SE,3.5,-,N/A,,Partly Cloudy,130,2013-12-27 22:09:00
5:29 PM,33.8,30.2,87,30.15,4.0,South,5.8,-,N/A,,Clear,170,2013-12-27 22:29:00
5:53 PM,33.1,28.9,85,30.17,5.0,South,4.6,-,N/A,,Clear,180,2013-12-27 22:53:00
6:53 PM,34.0,28.0,79,30.15,8.0,South,8.1,-,N/A,,Clear,180,2013-12-27 23:53:00
7:53 PM,35.1,28.0,76,30.12,10.0,SSW,10.4,-,N/A,,Clear,200,2013-12-28 00:53:00
8:53 PM,36.0,28.9,76,30.10,10.0,SSW,10.4,-,N/A,,Partly Cloudy,210,2013-12-28 01:53:00
9:53 PM,37.0,28.9,73,30.07,10.0,SSW,13.8,-,N/A,,Scattered Clouds,210,2013-12-28 02:53:00
10:53 PM,37.9,28.9,70,30.03,10.0,SSW,13.8,-,N/A,,Overcast,210,2013-12-28 03:53:00
11:53 PM,39.0,28.9,67,30.03,10.0,SW,11.5,-,N/A,,Overcast,230,2013-12-28 04:53:00